Temperature
18 18 18 18 18 18 18 18 18 18 18 18 18 18 18 18 18 18 18 18 18 18 18 18 18 18 18 18 18 18 18 18 18 18 18 18 18 18 18 18 18 18 18
18 18 18 18 18 18 18 18 18 18 18 18 18 18 18 18 18 18 18 18 18 18 18 18 18 18 18 18 18 18 18 18 18 18 18 18 18 18 18 18 18 18 18
18 18 18 18 18 18 18 18 18 17 18 18 18 18 18 18 18 18 18 18 18 18 18 18 18 18 18 18 18 18 18 18 18 18 18 18 17 17 17 17 17 17 17
18 18 18 18 18 18 18 17 17 17 17 18 18 18 18 18 18 18 18 18 18 17 18 18 18 18 18 18 18 17 17 17 17 17 17 17 17 17 17 17 17 17 17
18 18 18 18 18 18 18 17 17 17 17 17 18 18 18 18 17 17 17 17 17 17 17 17 17 18 18 18 17 17 17 17 17 17 17 17 17 17 17 17 17 17 17
18 18 18 18 18 18 18 17 17 17 17 17 17 17 17 17 17 17 17 17 17 17 17 17 17 17 17 17 17 17 17 17 17 17 17 17 17 17 17 17 17 17 17
18 18 18 18 18 18 18 17 17 17 18 17 17 17 17 17 17 17 17 17 17 17 17 17 17 17 17 17 17 17 17 17 17 17 17 17 17 17 17 17 17 17 17
19 18 18 18 18 18 18 17 17 17 17 17 17 17 17 17 17 17 17 17 17 17 17 17 17 17 17 17 17 17 17 17 17 17 17 17 17 17 17 17 17 17 17
19 18 18 18 18 18 18 17 17 17 17 17 17 17 17 17 17 17 17 17 17 17 17 17 17 17 17 17 17 17 16 16 16 16 16 16 16 17 17 16 16 16 16
19 19 18 18 18 18 18 17 17 17 17 17 17 17 17 17 17 17 17 17 17 17 17 17 17 17 17 17 17 16 16 16 16 16 16 16 16 16 16 16 16 16 16
19 19 19 18 18 18 17 17 17 17 17 17 17 17 17 17 17 17 17 17 17 17 17 17 17 17 16 16 16 16 16 16 16 16 16 16 16 16 16 16 16 16 16
19 19 19 18 18 18 17 17 17 17 17 17 17 17 17 17 17 17 17 16 16 16 16 16 16 16 16 16 16 16 16 16 16 16 16 16 16 16 16 16 16 16 16
19 19 19 19 18 18 17 17 17 17 17 17 17 17 17 17 17 17 17 16 16 16 16 16 16 16 16 16 16 16 16 16 16 16 16 16 16 16 16 16 16 16 16
19 19 18 18 18 18 17 17 17 17 17 17 17 17 17 17 17 17 17 16 16 16 16 16 16 16 16 16 16 16 16 16 16 16 16 16 16 16 16 16 16 15 15
19 18 18 18 18 18 17 17 17 17 17 17 17 17 17 17 17 17 16 16 16 16 16 16 16 16 16 16 16 16 16 16 16 16 15 15 15 15 15 15 15 15 15
19 18 18 18 18 18 17 17 17 17 17 17 17 17 17 16 16 16 16 16 16 16 16 16 16 16 16 16 16 16 16 16 15 15 15 15 15 15 15 15 15 15 15
18 18 18 18 18 17 17 17 17 17 16 16 17 17 17 16 16 16 16 16 16 16 16 16 16 16 16 16 16 16 16 15 15 15 15 15 15 15 15 15 15 15 15
18 18 18 18 17 17 17 17 16 16 16 16 16 16 16 16 16 16 16 16 16 16 16 16 16 15 15 15 15 15 15 15 15 15 15 15 15 15 15 14 14 14 14
18 18 18 17 17 17 17 16 16 16 16 16 16 16 16 16 16 16 16 16 16 16 16 15 15 15 15 15 15 15 15 15 15 15 15 14 14 14 14 14 14 14 14
18 18 18 17 17 17 17 16 16 16 16 16 16 16 16 16 16 15 15 15 15 15 15 15 15 15 15 15 15 15 15 15 15 15 14 14 14 14 14 14 14 14 14
18 18 17 17 17 17 16 16 16 16 16 15 15 15 15 15 15 15 15 15 15 15 15 15 15 15 15 15 15 15 15 14 14 14 14 14 14 14 14 14 14 14 14
17 17 17 17 16 16 16 16 16 15 15 15 15 15 15 15 15 15 15 15 15 15 15 15 15 15 15 15 15 15 14 14 14 14 14 14 14 14 13 13 13 13 13
17 17 17 16 16 16 16 16 15 15 15 15 15 15 15 15 15 15 15 15 14 14 14 15 15 15 14 14 15 14 14 14 14 14 14 14 14 14 13 13 13 13 13
16 16 16 16 16 16 16 15 15 15 15 14 14 14 14 14 14 14 14 14 14 14 14 14 14 14 14 14 14 14 14 14 14 13 14 14 14 13 13 13 13 13 13
16 16 16 16 16 16 15 15 15 15 14 14 14 14 14 14 14 14 14 14 14 14 14 14 14 14 14 14 14 14 14 14 14 14 13 13 13 13 13 13 13 13 12
15 15 15 15 15 15 15 15 14 14 14 14 14 13 13 13 13 13 13 13 13 13 13 13 13 13 13 13 13 13 13 13 13 13 13 13 13 13 13 13 12 12 12
Wind_Speed
7 10 12 13 13 12 12 12 12 12 12 13 12 12 11 11 11 11 11 11 11 11 11 11 11 11 10 10 9 9 9 8 8 8 8 8 8 8 7 7 7 6 9
9 12 13 13 13 13 13 13 13 12 12 12 12 12 12 11 11 11 11 11 11 11 11 11 12 11 10 10 9 9 9 8 7 7 8 8 8 8 8 8 7 7 9
10 12 13 13 13 13 13 13 13 13 13 13 12 12 12 12 12 12 12 11 11 11 11 12 12 11 11 11 10 9 8 8 7 7 7 6 7 8 8 8 8 8 9
11 13 12 11 12 12 13 13 13 13 13 13 13 13 13 13 13 13 13 13 12 12 12 12 12 11 11 10 10 9 8 8 7 7 6 6 7 8 8 8 7 8 8
12 14 12 12 12 12 13 13 13 14 14 14 14 13 13 13 14 14 14 14 13 13 13 12 12 12 11 11 10 9 8 7 7 7 7 8 8 9 9 8 8 8 8
11 14 12 11 12 13 13 12 13 14 14 14 14 14 13 14 14 14 14 14 14 14 13 13 12 12 11 10 10 9 8 8 7 7 8 9 9 9 9 9 9 8 8
10 12 12 12 12 12 13 12 12 13 13 13 13 13 13 13 14 13 14 14 14 14 13 12 12 12 11 10 9 8 8 8 8 8 9 10 10 10 10 10 9 9 8
8 11 12 11 12 12 12 12 12 12 12 12 12 12 12 13 13 13 13 14 14 13 13 12 12 12 11 10 9 9 9 9 10 10 10 10 12 12 12 11 10 10 9
7 8 9 10 11 12 12 11 11 10 10 9 10 10 10 11 11 12 12 13 12 12 12 11 11 11 10 9 8 9 9 10 8 8 10 10 12 13 13 12 12 12 11
6 6 6 8 9 10 10 10 9 8 7 7 7 7 8 8 9 10 11 11 11 10 10 10 9 9 8 6 6 7 8 9 10 10 10 11 13 13 13 13 13 13 13
5 5 6 6 7 8 9 8 8 7 5 4 4 4 4 5 7 8 10 9 8 8 7 7 7 6 5 4 4 4 6 8 10 10 10 12 13 13 12 13 13 13 13
4 5 4 5 6 6 6 6 5 5 4 3 5 5 4 5 6 8 7 7 6 6 5 4 3 2 2 2 2 3 5 8 9 9 10 12 12 12 12 13 13 13 13
5 5 5 5 5 5 4 4 3 4 3 3 5 7 6 5 5 5 3 4 4 3 2 2 2 2 2 3 4 5 7 8 8 9 10 12 12 12 12 13 13 12 12
5 5 4 4 5 6 5 3 3 3 3 3 4 5 4 2 2 3 3 3 3 2 2 1 1 3 4 4 5 6 7 7 9 9 9 11 11 12 12 12 12 12 11
6 5 5 5 5 5 4 3 4 3 3 4 4 4 5 3 3 3 3 3 3 2 2 1 3 4 4 5 6 7 6 7 9 9 9 10 11 11 11 10 10 10 10
5 5 4 3 4 5 4 3 3 3 4 5 4 6 7 5 4 3 3 3 3 3 3 3 3 3 3 4 5 5 5 7 8 9 9 9 10 10 10 9 9 9 9
5 5 4 3 4 5 5 4 4 4 5 4 4 6 6 6 5 4 3 3 3 4 4 4 4 4 3 4 4 4 5 6 6 7 7 7 8 8 9 8 8 8 8
4 5 5 3 4 4 4 3 4 4 5 4 5 6 7 7 7 5 3 3 4 4 3 3 3 3 3 3 3 3 4 4 5 5 5 6 7 6 7 7 7 7 7
4 5 5 4 4 4 3 3 4 4 4 4 5 6 7 7 7 5 3 3 4 4 3 3 3 3 3 2 2 2 3 3 2 3 4 5 7 8 6 6 6 7 7
3 4 5 5 4 4 3 3 3 3 3 4 4 5 7 6 7 5 3 4 5 3 3 3 3 3 2 1 2 3 2 2 2 3 3 4 5 7 6 7 6 5 6
3 4 5 4 3 3 3 2 2 2 2 3 3 5 6 6 6 5 4 4 4 3 3 3 2 3 2 2 2 2 2 2 2 2 2 3 3 5 6 6 6 6 5
3 3 4 4 3 3 2 2 2 2 2 3 3 4 5 6 6 5 3 3 3 2 3 3 3 2 1 1 1 1 1 2 2 2 2 2 2 3 3 4 6 6 6
3 2 2 3 4 3 3 3 3 3 2 3 3 3 4 6 6 5 4 3 2 2 2 2 2 2 1 1 1 1 1 1 0 1 1 1 2 1 2 3 5 6 6
3 2 2 3 3 3 4 3 4 3 2 2 1 2 3 5 5 5 5 4 3 2 2 2 2 1 1 1 2 1 1 1 1 0 1 0 1 1 1 2 3 5 6
3 3 2 2 3 3 3 3 3 2 1 1 1 2 2 3 4 5 5 4 3 3 2 2 2 2 1 1 0 1 1 1 1 1 1 0 1 0 1 1 3 4 5
4 3 2 3 2 2 2 2 2 2 2 1 1 1 1 1 2 3 4 3 3 3 3 2 2 2 2 2 2 1 1 1 1 0 0 1 1 1 0 1 2 3 5
Wind_Direction
77 76 59 56 57 57 57 55 55 57 58 60 59 57 56 56 62 64 63 65 70 72 72 73 74 73 71 68 67 67 70 69 74 77 79 79 78 76 74 74 73 78 89
87 82 67 60 59 59 57 57 56 59 60 59 59 59 58 57 60 64 64 66 72 74 73 73 75 74 73 69 66 65 66 68 71 77 76 73 76 79 78 76 75 80 85
87 86 73 61 59 58 58 58 58 61 61 60 60 60 60 59 61 64 65 69 74 80 76 75 73 72 73 69 67 67 67 66 68 67 63 61 73 78 80 79 78 82 82
85 81 73 66 63 62 60 58 59 61 62 61 59 59 61 62 64 64 66 72 76 78 78 76 73 73 72 70 71 72 68 64 65 58 61 65 70 75 81 81 82 87 85
87 86 78 70 68 66 64 62 62 64 64 62 59 59 63 67 67 67 68 72 74 75 74 72 70 70 70 70 70 72 68 67 61 58 62 61 65 75 81 80 85 94 91
91 92 87 80 76 74 71 70 70 68 66 63 61 62 67 69 68 69 70 71 73 73 72 72 70 68 69 69 67 63 59 61 54 63 67 64 68 76 80 78 83 89 90
88 96 95 89 86 82 77 73 73 72 71 69 67 66 67 69 70 71 72 73 74 73 71 72 70 67 68 67 62 55 49 52 62 69 71 67 69 73 76 75 79 85 84
91 101 105 100 94 92 84 77 77 76 74 74 72 71 70 71 70 71 72 74 74 73 72 72 71 68 69 67 61 53 50 55 70 70 72 70 73 73 73 74 77 79 81
90 104 117 120 110 101 93 88 84 83 82 83 81 79 78 77 76 76 76 76 76 74 73 73 74 73 71 66 60 54 49 50 67 71 72 72 74 73 72 72 74 73 75
84 91 98 114 117 114 110 102 99 94 90 90 95 92 91 89 87 84 84 83 82 80 80 79 81 80 75 66 56 46 41 50 67 67 70 75 74 73 72 71 74 73 72
70 83 89 96 102 108 112 112 118 115 106 99 106 113 112 111 102 89 90 93 91 89 90 89 93 90 83 70 60 44 50 75 72 71 73 76 75 74 74 76 75 74 72
68 74 83 86 87 86 86 106 110 94 86 83 79 75 84 80 86 94 104 110 110 106 103 108 115 121 107 90 62 50 74 84 82 80 79 79 77 78 79 80 78 76 74
73 58 65 79 88 87 73 83 83 86 69 43 67 67 59 72 95 105 117 124 127 126 117 112 168 194 103 86 83 75 67 76 83 80 82 82 81 82 84 83 81 79 76
87 69 58 66 78 80 74 65 65 59 56 39 35 71 61 40 57 81 91 104 116 100 69 52 1 63 64 78 82 81 75 79 89 89 88 89 87 87 85 83 82 81 77
90 82 51 49 71 81 77 59 73 53 38 49 22 38 60 41 42 45 69 66 72 77 69 42 38 42 37 51 62 68 76 80 93 97 97 96 93 89 87 84 83 82 80
94 93 72 53 72 85 86 71 60 56 51 42 17 29 51 45 40 40 51 43 46 51 45 59 61 54 46 48 54 55 64 77 89 96 102 97 96 91 85 84 84 81 81
98 100 92 70 64 74 73 67 66 58 52 38 22 23 41 45 48 38 42 39 34 48 51 51 58 56 59 56 52 55 56 59 76 90 102 105 102 94 87 84 84 79 80
103 104 100 76 69 75 72 60 59 59 50 37 30 20 26 34 49 44 38 36 42 45 47 53 64 62 58 61 57 60 68 62 62 78 94 108 110 102 96 89 85 79 78
93 104 106 93 72 72 69 72 58 61 59 42 38 24 16 22 44 45 31 35 45 37 34 45 49 60 61 56 72 80 78 76 55 64 73 84 101 105 106 101 91 84 80
76 88 94 92 77 75 58 63 63 61 54 46 39 27 18 21 39 43 34 34 39 39 40 46 52 50 59 48 65 75 80 93 73 61 61 71 87 102 106 106 103 89 80
81 79 81 91 91 81 59 64 64 54 57 50 40 34 20 17 26 43 43 32 33 36 38 47 51 58 44 47 72 60 48 73 88 87 71 64 71 87 98 105 111 102 90
88 73 93 89 94 92 73 75 88 67 56 59 30 24 17 21 22 36 45 38 33 34 32 42 44 36 16 38 72 89 55 12 11 74 87 93 78 71 84 100 100 100 100
100 88 75 92 98 103 96 68 67 61 51 47 30 19 10 23 25 25 25 40 39 38 35 39 51 44 8 358 49 92 112 186 285 329 84 102 97 69 54 79 98 102 104
94 92 79 76 84 92 107 94 93 83 66 37 39 26 9 22 24 23 24 26 34 32 31 22 42 26 41 334 332 359 95 125 141 246 315 42 113 112 100 67 84 100 101
65 63 67 71 73 78 90 108 104 91 81 55 56 53 33 16 17 20 25 29 21 20 24 39 26 12 25 5 344 341 360 13 36 129 223 325 1 2 103 97 86 98 114
70 51 51 60 65 76 93 117 128 122 119 93 61 72 50 26 3 17 24 31 24 13 11 28 30 18 14 3 0 8 18 36 353 94 187 181 195 273 49 83 97 102 111
Height
1513 1511 1509 1508 1507 1507 1506 1506 1505 1505 1505 1504 1504 1504 1504 1504 1504 1504 1503 1503 1504 1504 1505 1505 1505 1506 1507 1507 1508 1509 1510 1510 1511 1512 1512 1513 1514 1514 1515 1515 1516 1516 1517
1514 1512 1511 1510 1509 1508 1508 1507 1507 1507 1506 1506 1506 1505 1505 1505 1505 1505 1504 1504 1504 1505 1506 1506 1507 1507 1508 1508 1509 1509 1510 1511 1511 1512 1513 1513 1514 1515 1515 1516 1516 1517 1517
1515 1513 1512 1511 1510 1510 1509 1509 1509 1508 1508 1507 1507 1507 1507 1507 1507 1506 1505 1505 1505 1506 1507 1507 1508 1508 1509 1509 1509 1510 1511 1512 1512 1513 1513 1514 1515 1515 1516 1516 1517 1517 1517
1516 1515 1514 1513 1512 1511 1511 1511 1510 1510 1509 1509 1509 1508 1508 1508 1508 1507 1507 1506 1506 1508 1508 1509 1509 1510 1510 1510 1511 1511 1512 1512 1513 1514 1514 1515 1515 1516 1516 1517 1517 1517 1518
1517 1516 1516 1515 1514 1513 1513 1513 1512 1512 1511 1511 1510 1509 1509 1510 1510 1509 1509 1508 1509 1509 1510 1510 1511 1511 1511 1511 1512 1512 1513 1513 1514 1514 1515 1515 1516 1516 1517 1517 1517 1518 1518
1519 1518 1517 1516 1516 1515 1515 1515 1514 1514 1513 1513 1512 1511 1511 1511 1512 1511 1511 1511 1511 1511 1511 1512 1512 1512 1512 1513 1513 1514 1514 1514 1514 1515 1515 1516 1516 1517 1517 1517 1517 1518 1518
1521 1520 1519 1518 1518 1517 1517 1517 1516 1516 1516 1515 1514 1514 1513 1513 1513 1514 1513 1513 1513 1513 1513 1514 1514 1514 1514 1514 1515 1515 1515 1516 1515 1515 1516 1516 1517 1517 1517 1517 1518 1518 1519
1522 1521 1521 1521 1520 1520 1519 1519 1519 1518 1518 1518 1517 1517 1516 1516 1516 1516 1516 1516 1515 1515 1515 1516 1516 1515 1515 1516 1516 1516 1516 1517 1516 1516 1517 1517 1518 1518 1517 1518 1518 1519 1519
1524 1523 1523 1522 1522 1522 1522 1521 1521 1520 1520 1520 1520 1519 1519 1519 1519 1518 1518 1518 1518 1518 1518 1517 1517 1517 1517 1517 1518 1518 1518 1518 1518 1518 1518 1518 1518 1518 1518 1519 1519 1519 1520
1525 1525 1525 1525 1524 1524 1524 1523 1523 1523 1523 1522 1522 1522 1521 1521 1521 1521 1521 1521 1520 1520 1520 1520 1520 1519 1519 1519 1519 1519 1519 1519 1519 1519 1519 1519 1519 1519 1519 1520 1520 1520 1520
1527 1527 1526 1526 1526 1526 1526 1525 1525 1525 1525 1524 1524 1524 1523 1523 1523 1523 1523 1523 1522 1522 1522 1522 1522 1522 1522 1522 1522 1521 1521 1520 1520 1520 1520 1520 1520 1520 1520 1521 1521 1521 1521
1528 1528 1528 1528 1528 1528 1528 1527 1527 1527 1526 1526 1526 1526 1526 1526 1525 1525 1525 1524 1524 1524 1524 1524 1523 1523 1523 1523 1524 1523 1523 1522 1521 1521 1521 1521 1521 1521 1521 1522 1522 1522 1522
1529 1529 1529 1529 1529 1529 1529 1529 1529 1528 1528 1528 1528 1528 1528 1527 1527 1526 1526 1526 1525 1525 1525 1525 1525 1525 1525 1525 1525 1525 1524 1524 1523 1523 1523 1523 1523 1523 1523 1522 1522 1523 1523
1530 1530 1530 1530 1530 1530 1530 1530 1530 1530 1529 1529 1529 1529 1529 1529 1528 1528 1528 1527 1527 1527 1527 1526 1526 1527 1527 1527 1527 1526 1526 1525 1525 1524 1524 1524 1524 1524 1524 1523 1523 1523 1524
1530 1530 1530 1530 1531 1531 1531 1531 1531 1531 1531 1531 1530 1530 1530 1530 1529 1529 1529 1529 1528 1528 1528 1528 1528 1528 1528 1528 1528 1528 1527 1527 1526 1526 1526 1526 1525 1525 1525 1524 1524 1524 1524
1530 1530 1531 1531 1531 1531 1531 1532 1532 1532 1531 1531 1531 1531 1531 1531 1530 1530 1530 1529 1529 1529 1529 1528 1528 1528 1528 1529 1528 1528 1528 1528 1528 1527 1527 1527 1526 1526 1526 1525 1525 1525 1525
1530 1530 1531 1531 1532 1532 1532 1532 1532 1532 1532 1532 1532 1532 1532 1531 1531 1530 1530 1530 1530 1529 1529 1529 1529 1529 1529 1529 1529 1529 1529 1529 1529 1528 1528 1528 1527 1527 1526 1526 1526 1525 1525
1529 1530 1531 1531 1532 1532 1532 1532 1533 1532 1532 1532 1532 1532 1532 1532 1531 1531 1531 1530 1530 1530 1529 1529 1529 1529 1529 1530 1529 1530 1530 1530 1530 1530 1529 1529 1528 1527 1527 1527 1526 1526 1526
1529 1530 1530 1531 1532 1532 1532 1533 1533 1533 1533 1533 1532 1532 1532 1532 1532 1531 1531 1531 1530 1530 1530 1529 1529 1529 1530 1530 1530 1530 1530 1530 1530 1531 1530 1530 1529 1528 1527 1527 1527 1526 1526
1528 1529 1530 1530 1531 1531 1532 1532 1532 1532 1533 1533 1532 1532 1532 1532 1532 1531 1531 1531 1531 1530 1530 1529 1529 1529 1530 1530 1530 1530 1531 1531 1531 1531 1531 1531 1530 1529 1528 1527 1527 1526 1526
1528 1528 1528 1529 1530 1530 1531 1531 1532 1532 1532 1532 1532 1532 1532 1532 1532 1531 1531 1531 1531 1530 1530 1530 1529 1529 1530 1530 1530 1530 1531 1531 1531 1531 1531 1531 1530 1530 1528 1528 1527 1527 1527
1527 1527 1528 1528 1529 1529 1530 1531 1531 1532 1532 1532 1532 1532 1532 1531 1531 1531 1531 1530 1530 1530 1530 1530 1529 1529 1529 1530 1530 1530 1530 1532 1531 1531 1531 1531 1530 1530 1529 1528 1527 1527 1527
1525 1526 1527 1528 1528 1529 1529 1530 1530 1530 1531 1531 1531 1531 1531 1531 1531 1530 1530 1530 1530 1530 1529 1529 1529 1529 1528 1529 1529 1530 1530 1530 1531 1531 1531 1531 1530 1529 1529 1528 1528 1527 1527
1524 1525 1526 1527 1527 1528 1528 1528 1529 1529 1529 1530 1530 1530 1530 1530 1530 1530 1529 1529 1529 1529 1528 1528 1528 1528 1528 1528 1528 1528 1529 1529 1530 1530 1531 1530 1530 1529 1529 1529 1528 1527 1527
1523 1524 1525 1525 1526 1526 1526 1527 1527 1528 1528 1529 1529 1529 1529 1529 1529 1529 1528 1528 1528 1527 1527 1527 1527 1527 1527 1527 1527 1527 1527 1527 1528 1528 1528 1529 1529 1529 1528 1528 1528 1527 1527
1522 1522 1523 1524 1524 1524 1525 1526 1526 1527 1527 1527 1528 1527 1527 1527 1527 1527 1527 1527 1527 1526 1526 1526 1526 1525 1525 1525 1525 1526 1526 1526 1526 1526 1527 1527 1527 1528 1527 1527 1527 1527 1526